DateTimeUTC,F1_A11,F1_S11,BsB_S11,BsG_S11,BsR_S11,BbsB_S11,BbsG_S11,BbsR_S11,BaB_A11,BaG_A11,BaR_A11,T_S11,U_S11,P_S11,T1_A11
2020-07-27T00:00:00Z,00000380,20000600,,,,,,,,,,25.3,05.4,0672.9,31.1
2020-07-27T00:01:00Z,00000380,20000600,,,,,,,,,,25.3,05.4,0672.9,31.1
2020-07-27T00:02:00Z,00000380,20000600,,,,,,,,,,25.3,05.3,0672.9,31.1
2020-07-27T00:03:00Z,00000380,60000600,,,,,,,,,,25.3,05.2,0672.9,31.1
2020-07-27T00:04:00Z,00000380,40000600,-001.33,0000.18,0000.81,0000.10,-000.50,0000.34,0000.09,-000.04,0000.07,25.1,05.4,0673.9,31.1
2020-07-27T00:05:00Z,00000380,00000600,0000.84,0000.34,-000.07,-000.11,0000.31,0000.08,-000.09,0000.03,-000.15,25.1,05.4,0673.9,31.1
2020-07-27T00:06:00Z,00000380,00000600,-001.00,0000.15,0000.08,0000.09,0000.03,0000.14,0000.01,0000.13,0000.15,25.1,05.4,0673.9,31.1
2020-07-27T00:07:00Z,00000380,00000600,-000.40,-000.14,0000.19,0000.82,-000.58,-000.45,0000.03,-000.14,-000.10,25.1,05.5,0673.9,31.0
2020-07-27T00:08:00Z,00000380,00000600,-000.64,0000.75,0000.53,0000.53,0000.25,-000.13,0000.11,0000.11,0000.07,25.0,05.5,0673.9,31.0
2020-07-27T00:09:00Z,00000380,00000600,-000.32,0000.54,0000.05,0000.02,-000.27,-000.07,0000.04,0000.07,-000.02,25.0,05.5,0673.9,31.0
2020-07-27T00:10:00Z,00000380,00000600,-001.34,-000.43,0000.46,0000.22,-000.29,0000.16,0000.03,-000.03,0000.09,25.0,05.4,0673.9,31.0
2020-07-27T00:11:00Z,00000380,00010600,0000.72,0000.30,0000.20,0000.59,0000.09,-000.06,0000.11,-000.02,-000.08,25.0,05.5,0673.9,31.0
2020-07-27T00:12:00Z,00000380,00000600,-000.45,0000.36,0000.10,-000.17,0000.14,-000.08,-000.03,0000.19,0000.11,25.0,05.4,0673.9,31.0
2020-07-27T00:13:00Z,00000380,00000600,0000.34,0000.38,0000.57,0000.23,-000.23,0000.12,0000.06,0000.02,-000.10,25.0,05.5,0673.9,31.0
2020-07-27T00:14:00Z,00000380,00000600,-000.24,0000.26,-000.22,0000.42,-000.13,0000.37,0000.05,0000.01,0000.12,25.0,05.5,0673.9,31.0
2020-07-27T00:15:00Z,00000380,00000600,-000.82,0000.24,0000.75,0000.14,0000.31,0000.16,-000.03,0000.09,0000.05,25.0,05.5,0673.9,31.0
2020-07-27T00:16:00Z,00000380,00000600,-000.10,0000.12,0000.10,-000.04,-000.05,-000.05,0000.05,-000.11,-000.04,25.0,05.5,0673.9,31.0
2020-07-27T00:17:00Z,00000380,00000600,0000.07,0000.43,0000.25,0000.86,-000.15,0000.12,0000.09,0000.05,0000.11,25.0,05.5,0674.0,31.0
2020-07-27T00:18:00Z,00000380,00000600,0000.22,0000.77,0000.58,0000.31,0000.44,-000.08,0000.03,0000.06,-000.04,25.0,05.4,0674.0,31.1
2020-07-27T00:19:00Z,00000380,00000600,0001.14,-000.03,-000.03,0000.27,0000.16,0000.02,0000.09,0000.16,0000.09,25.0,05.4,0674.0,31.0
2020-07-27T00:20:00Z,00000388,00000608,0000.02,0000.82,-000.11,0000.03,-000.31,0000.33,0000.03,-000.01,-000.03,25.0,05.5,0674.0,31.0
2020-07-27T00:21:00Z,00000388,00000608,-000.68,0000.43,0000.43,0000.73,-000.12,0000.22,0000.01,-000.07,0000.11,25.0,05.5,0674.0,31.0
2020-07-27T00:22:00Z,00000388,00000608,-000.10,0000.08,0001.09,0000.20,-000.10,0000.26,0000.07,0000.15,-000.06,25.0,05.4,0674.0,31.0
2020-07-27T00:23:00Z,00000388,00000608,-000.19,0000.51,0000.01,-000.89,0000.42,0000.30,0000.02,-000.04,0000.05,24.9,05.5,0674.0,31.0
2020-07-27T00:24:00Z,00000388,00000608,0000.02,0000.20,0000.51,0000.68,-000.17,0000.42,0000.10,0000.08,0000.12,24.9,05.4,0674.0,31.0
2020-07-27T00:25:00Z,00000388,00000608,0000.42,0000.50,0000.03,-000.11,0000.18,0000.37,0000.00,-000.03,-000.06,25.0,05.5,0674.0,31.0
2020-07-27T00:26:00Z,00000388,00000608,-000.93,-000.54,0000.81,0000.39,0000.01,0000.56,-000.09,0000.02,-000.07,24.9,05.4,0674.0,31.1
2020-07-27T00:27:00Z,00000388,00000608,0000.48,0000.34,0000.17,0000.01,-000.12,-000.05,0000.20,0000.08,0000.08,24.9,05.4,0674.0,31.0
2020-07-27T00:28:00Z,00000388,00000608,0000.68,0000.12,0000.38,-000.39,-000.29,0000.16,-000.05,-000.01,0000.03,24.9,05.4,0674.0,31.0
2020-07-27T00:29:00Z,00000388,00000608,0000.13,-000.12,0000.30,-000.01,-000.15,-000.04,-000.14,0000.03,0000.02,24.9,05.5,0674.0,31.1
2020-07-27T00:30:00Z,00000388,00000608,0000.76,0000.31,-000.01,-000.29,0000.22,-000.09,0000.27,-000.02,0000.02,24.9,05.4,0674.0,31.1
2020-07-27T00:31:00Z,00000388,00000608,0000.55,-000.01,0000.55,0000.18,0000.23,0000.04,-000.06,0000.12,-000.01,24.9,05.4,0674.0,31.0
2020-07-27T00:32:00Z,00000388,00000608,-000.09,0000.37,0000.43,0001.20,-000.32,-000.11,0000.06,0000.15,0000.11,24.9,05.4,0674.0,31.0
2020-07-27T00:33:00Z,00000388,00000608,-000.90,0000.19,0000.96,0000.52,-000.46,0000.47,0000.04,-000.15,0000.06,24.9,05.4,0674.0,31.1
2020-07-27T00:34:00Z,00000388,00000608,-002.90,-000.09,0000.07,0000.26,-000.15,0000.05,-000.07,0000.06,-000.02,24.9,05.4,0673.9,31.0
2020-07-27T00:35:00Z,00000388,00000608,-000.17,0000.46,0000.05,-000.29,-000.12,0000.23,0000.25,0000.06,0000.04,24.9,05.5,0673.9,31.0
2020-07-27T00:36:00Z,00000388,00000608,0000.17,0000.27,0000.72,0000.24,0000.25,0000.17,-000.06,0000.07,0000.08,24.9,05.4,0673.9,31.0
2020-07-27T00:37:00Z,00000388,00000608,-001.59,0000.24,0000.44,0000.75,-000.12,-000.10,0000.02,0000.04,-000.19,24.9,05.4,0673.9,31.0
2020-07-27T00:38:00Z,00000388,00000608,0000.51,0000.65,0000.52,0000.29,-000.42,0000.23,0000.01,-000.06,0000.16,24.9,05.5,0673.9,31.0
2020-07-27T00:39:00Z,00000388,00000608,0001.74,0000.14,0000.48,0000.20,0000.20,0000.24,0000.15,0000.13,0000.03,24.8,05.4,0673.9,31.0
2020-07-27T00:40:00Z,00000388,00000608,0000.32,0000.18,-000.03,0000.15,0000.17,0000.48,0000.01,0000.00,0000.04,24.9,05.5,0673.9,31.0
2020-07-27T00:41:00Z,00000388,00000608,-000.94,-000.15,0000.03,0001.02,0000.03,-000.05,-000.07,0000.01,0000.05,24.9,05.4,0673.9,31.0
2020-07-27T00:42:00Z,00000388,00000608,0000.28,0000.05,0000.23,0000.26,-000.33,0000.39,0000.08,0000.03,-000.02,24.8,05.4,0673.9,31.0
2020-07-27T00:43:00Z,00000388,00000608,0000.07,-000.05,0000.63,0000.87,-000.24,-000.15,-000.07,0000.15,-000.05,24.8,05.4,0673.9,31.0
2020-07-27T00:44:00Z,00000388,00000608,-000.81,0000.25,0000.43,0000.69,-000.04,0000.23,0000.15,-000.08,0000.12,24.8,05.4,0673.9,31.1
2020-07-27T00:45:00Z,00000388,00000608,0000.05,0000.53,0000.06,0000.52,-000.30,-000.14,0000.05,0000.04,0000.04,24.8,05.4,0673.9,31.0
2020-07-27T00:46:00Z,00000388,00000608,0000.70,0000.51,0000.62,0000.32,-000.08,0000.11,0000.11,-000.01,-000.05,24.8,05.5,0673.9,31.0
2020-07-27T00:47:00Z,00000388,00000608,0000.84,0000.47,0000.24,-000.74,0000.38,0000.55,-000.02,0000.09,0000.08,24.8,05.5,0673.9,31.0
2020-07-27T00:48:00Z,00000388,00000608,-000.58,0000.41,0000.31,0000.89,-000.01,0000.15,0000.06,0000.10,-000.01,24.8,05.5,0673.9,31.0
2020-07-27T00:49:00Z,00000388,00000608,0000.68,0000.02,0000.42,0000.56,0000.13,0000.49,0000.18,0000.00,0000.16,24.8,05.5,0673.9,31.0
2020-07-27T00:50:00Z,00000388,00000608,0000.75,0000.10,-000.16,0000.52,0000.21,-000.09,-000.04,0000.07,-000.06,24.8,05.5,0673.9,31.0
2020-07-27T00:51:00Z,00000388,00000608,0000.30,-000.06,-000.17,0000.26,0000.06,0000.24,-000.04,0000.04,0000.08,24.8,05.5,0673.9,31.0
2020-07-27T00:52:00Z,00000388,00000608,0000.38,0000.66,-000.23,-000.44,0000.31,0000.34,0000.07,0000.03,-000.01,24.8,05.5,0673.9,31.0
2020-07-27T00:53:00Z,00000388,00000608,-000.13,-000.03,-000.05,-000.12,0000.05,-000.26,-000.02,-000.09,-000.01,24.8,05.5,0673.9,31.0
2020-07-27T00:54:00Z,00000388,00000608,-000.75,0000.75,-000.01,-000.15,0000.39,0000.21,0000.05,0000.14,0000.07,24.8,05.4,0673.9,31.0
2020-07-27T00:55:00Z,00000388,00000608,0001.29,0000.44,-000.13,0000.50,0000.15,0000.05,0000.10,-000.04,0000.17,24.8,05.4,0673.8,31.0
2020-07-27T00:56:00Z,00000388,00000608,-000.26,0000.62,0000.09,-000.08,-000.30,0000.31,0000.05,0000.03,-000.09,24.8,05.5,0673.9,31.0
2020-07-27T00:57:00Z,00000388,40000608,,,,,,,,,,24.8,05.4,0673.9,31.0
2020-07-27T00:58:00Z,00000388,60000608,,,,,,,,,,24.9,05.4,0672.8,31.0
2020-07-27T00:59:00Z,00000388,20000608,,,,,,,,,,25.0,05.4,0672.8,31.0
2020-07-27T01:00:00Z,00000388,20000608,,,,,,,,,,25.0,05.3,0672.8,31.0
2020-07-27T01:01:00Z,00000380,20000600,,,,,,,,,,25.1,05.2,0672.8,31.0
2020-07-27T01:02:00Z,00000380,20000600,,,,,,,,,,25.0,05.2,0672.8,31.0
2020-07-27T01:03:00Z,00000380,60000600,,,,,,,,,,25.1,05.2,0672.8,31.0
2020-07-27T01:04:00Z,00000380,40000600,0001.47,-000.18,-000.38,-000.21,0000.15,0000.32,-000.10,-000.06,-000.03,24.9,05.3,0673.7,31.0
2020-07-27T01:05:00Z,00000380,00000600,0000.18,0000.08,0000.02,-000.25,-000.12,0000.45,0000.14,-000.04,0000.07,24.8,05.3,0673.8,31.0
2020-07-27T01:06:00Z,00000380,00000600,0000.35,0000.09,-000.00,-000.30,-000.32,0000.35,0000.05,0000.07,0000.13,24.8,05.3,0673.8,31.0
2020-07-27T01:07:00Z,00000380,00000600,0000.20,-000.02,0000.08,0000.49,0000.28,-000.01,0000.01,0000.09,-000.14,24.8,05.3,0673.8,31.0
2020-07-27T01:08:00Z,00000380,00000600,0000.46,0000.17,-000.07,0000.08,-000.34,-000.16,-000.01,-000.01,0000.13,24.8,05.4,0673.9,31.0
2020-07-27T01:09:00Z,00000380,00000600,0000.58,0000.18,0000.07,0000.02,0000.20,-000.11,0000.17,0000.12,0000.07,24.8,05.3,0673.9,31.0
2020-07-27T01:10:00Z,00000380,00000600,0000.68,0000.61,0000.26,-000.41,0000.16,0000.12,-000.00,-000.05,0000.01,24.8,05.4,0673.9,31.0
2020-07-27T01:11:00Z,00000380,00000600,0000.34,0000.17,0000.20,-000.31,0000.30,0000.10,0000.00,0000.10,-000.10,24.8,05.5,0673.9,31.0
2020-07-27T01:12:00Z,00000380,00000600,0000.30,-000.04,0000.11,0000.09,0000.26,0000.18,0000.01,0000.01,0000.08,24.7,05.4,0673.9,31.0
2020-07-27T01:13:00Z,00000380,00000600,0000.44,0000.24,0000.24,-001.07,0000.21,-000.02,0000.05,0000.06,0000.19,24.7,05.4,0673.9,31.0
2020-07-27T01:14:00Z,00000380,00000600,0000.97,0000.55,0000.29,0000.47,0000.17,0000.17,-000.00,0000.03,-000.02,24.7,05.4,0673.9,31.0
2020-07-27T01:15:00Z,00000380,00000600,0000.28,0000.60,0000.01,-000.00,-000.08,0000.32,0000.11,0000.04,-000.11,24.7,05.4,0673.9,31.0
2020-07-27T01:16:00Z,00000380,00000600,0001.48,0000.08,0000.01,0000.08,-000.08,-000.10,-000.12,-000.03,0000.14,24.7,05.5,0673.8,31.0
2020-07-27T01:17:00Z,00000380,00000600,-000.35,0000.32,0000.39,-000.90,0000.03,0000.15,0000.18,-000.03,-000.01,24.7,05.4,0673.8,31.0
2020-07-27T01:18:00Z,00000380,00000600,-000.14,0000.59,-000.09,0000.66,0000.10,-000.09,0000.00,0000.19,0000.01,24.7,05.4,0673.8,31.0
2020-07-27T01:19:00Z,00000380,00000600,0001.16,0000.82,0000.09,-001.02,0000.33,0000.25,-000.05,0000.01,-000.04,24.7,05.4,0673.8,31.0
2020-07-27T01:20:00Z,00000380,00000600,0001.40,0000.37,-000.08,-000.68,-000.04,0000.15,0000.09,-000.06,0000.20,24.7,05.4,0673.8,31.0
2020-07-27T01:21:00Z,00000380,00000600,0000.97,0000.15,-000.14,0000.05,0000.24,-000.30,-000.01,0000.01,0000.10,24.7,05.4,0673.9,31.0
2020-07-27T01:22:00Z,00000380,00000600,0000.14,0000.15,-000.34,0000.34,0000.47,-000.28,0000.11,-000.02,-000.08,24.7,05.5,0673.8,31.0
2020-07-27T01:23:00Z,00000380,00000600,0000.42,0000.09,0000.15,-000.93,0000.00,0000.09,0000.04,0000.14,0000.17,24.7,05.4,0673.8,31.0
2020-07-27T01:24:00Z,00000380,00000600,0001.65,0000.55,0000.30,-000.51,0000.17,0000.11,-000.19,-000.02,-000.18,24.7,05.4,0673.8,31.0
2020-07-27T01:25:00Z,00000380,00000600,0000.04,0000.00,0000.11,0000.04,0000.06,0000.35,0000.17,-000.04,0000.11,24.7,05.3,0673.8,31.0
2020-07-27T01:26:00Z,00000380,00000600,0000.35,0000.28,0000.11,0000.08,0000.10,-000.03,0000.02,0000.16,-000.01,24.7,05.2,0673.8,31.0
2020-07-27T01:27:00Z,00000380,00000600,0000.31,0000.08,0000.01,0000.31,0000.47,0000.18,-000.16,-000.19,-000.06,24.6,05.2,0673.8,31.0
2020-07-27T01:28:00Z,00000380,00000600,-000.28,0000.12,-000.03,-000.31,0000.31,-000.08,0000.01,0000.05,0000.06,24.7,05.2,0673.8,31.0
2020-07-27T01:29:00Z,00000380,00000600,0000.91,0000.32,0000.15,-000.39,0000.04,0000.13,0000.06,0000.11,-000.07,24.6,05.2,0673.8,31.0
2020-07-27T01:30:00Z,00000380,00000600,0001.17,0000.47,0000.10,-000.37,0000.12,0000.56,-000.03,-000.16,0000.05,24.6,05.1,0673.8,31.0
2020-07-27T01:31:00Z,00000380,00000600,0000.27,-000.02,0000.41,-000.29,0000.46,0000.23,0000.09,0000.17,0000.12,24.6,05.2,0673.8,31.0
2020-07-27T01:32:00Z,00000380,00000600,0000.51,0000.32,-000.24,0000.41,-000.03,-000.10,-000.03,0000.09,0000.05,24.6,05.1,0673.8,31.0
2020-07-27T01:33:00Z,00000380,00000600,0000.67,0000.23,-000.03,0000.64,0000.29,0000.09,-000.04,-000.10,-000.13,24.6,05.0,0673.8,31.0
2020-07-27T01:34:00Z,00000380,00000600,-001.09,0000.90,-000.17,-000.91,0000.28,-000.03,0000.07,-000.05,-000.13,24.6,05.1,0673.8,31.0
2020-07-27T01:35:00Z,00000380,00000600,0001.87,0000.00,0000.07,0000.30,-000.01,-000.03,-000.05,-000.04,0000.13,24.6,05.1,0673.8,31.0
2020-07-27T01:36:00Z,00000380,00000600,0001.21,0000.28,0000.04,-000.05,0000.36,0000.02,0000.02,0000.12,0000.04,24.6,05.0,0673.8,31.0
2020-07-27T01:37:00Z,00000380,00000600,-000.32,-000.01,-000.34,-000.82,0000.20,0000.18,0000.05,-000.04,0000.01,24.6,04.9,0673.8,31.0
2020-07-27T01:38:00Z,00000380,00000600,0000.67,0000.70,-000.20,0000.35,-000.17,-000.02,-000.06,0000.08,-000.06,24.6,05.0,0673.8,31.0
2020-07-27T01:39:00Z,00000380,00000600,-000.03,0000.22,0000.26,-000.09,-000.21,0000.37,0000.04,-000.02,0000.06,24.6,05.1,0673.8,31.0
2020-07-27T01:40:00Z,00000380,00000600,0000.40,0000.20,0000.15,-000.21,0000.50,-000.03,0000.03,-000.12,0000.02,24.6,05.0,0673.7,31.0
2020-07-27T01:41:00Z,00000380,00000600,0000.72,0000.31,0000.11,-000.11,0000.11,0000.08,0000.01,0000.09,0000.01,24.6,04.9,0673.7,31.0
2020-07-27T01:42:00Z,00000380,00000600,0000.74,0000.19,0000.13,0000.01,0000.05,0000.21,-000.06,0000.03,0000.12,24.6,05.0,0673.7,31.0
2020-07-27T01:43:00Z,00000380,00000600,0000.14,0000.20,0000.09,-000.52,0000.28,-000.36,0000.17,0000.00,-000.06,24.5,05.0,0673.7,31.0
2020-07-27T01:44:00Z,00000380,00000600,0000.21,0000.31,-000.58,-000.34,0000.18,0000.22,-000.07,-000.01,0000.02,24.5,04.9,0673.7,31.0
2020-07-27T01:45:00Z,00000380,00000600,0000.54,-000.18,-000.05,-000.13,0000.24,-000.02,0000.11,0000.02,-000.03,24.5,05.0,0673.7,31.0
2020-07-27T01:46:00Z,00000380,00000600,-000.47,0000.23,-000.53,-000.10,0000.17,-000.18,-000.02,0000.01,0000.15,24.5,04.9,0673.7,31.0
2020-07-27T01:47:00Z,00000380,00000600,0001.27,0000.43,0000.15,0000.40,0000.41,0000.18,-000.06,-000.03,-000.03,24.5,05.0,0673.7,31.0
2020-07-27T01:48:00Z,00000380,00000600,0000.66,0000.27,-000.01,0000.75,0000.10,0000.28,0000.14,-000.02,-000.04,24.5,04.9,0673.7,31.0
2020-07-27T01:49:00Z,00000380,00000600,0000.41,0000.22,0000.24,-000.59,-000.06,0000.22,-000.09,0000.21,0000.06,24.5,05.0,0673.7,31.0
2020-07-27T01:50:00Z,00000380,00000600,0000.82,0000.28,-000.02,-000.04,-000.06,-000.05,0000.01,-000.09,0000.10,24.5,04.9,0673.7,31.0
2020-07-27T01:51:00Z,00000380,00000600,0000.17,-000.00,0000.30,-001.42,0000.16,0000.38,0000.05,-000.01,-000.01,24.5,04.9,0673.7,31.0
2020-07-27T01:52:00Z,00000380,00000600,0000.24,0000.09,0000.53,0000.44,-000.11,-000.00,-000.01,0000.16,-000.06,24.5,05.0,0673.7,31.0
2020-07-27T01:53:00Z,00000380,00000600,0001.53,0000.31,0000.50,-000.16,0000.22,0000.28,0000.10,0000.00,0000.08,24.5,05.0,0673.7,31.0
2020-07-27T01:54:00Z,00000380,00000600,0001.86,0000.57,0000.35,0000.04,0000.01,0000.57,0000.02,0000.03,-000.02,24.5,05.1,0673.7,31.0
2020-07-27T01:55:00Z,00000380,00000600,0000.41,0000.09,0000.24,-000.34,0000.20,0000.27,0000.10,0000.11,0000.13,24.5,05.0,0673.7,31.0
2020-07-27T01:56:00Z,00000380,00000600,0000.04,-000.09,0000.25,0000.36,0000.29,0000.14,-000.01,-000.17,-000.10,24.5,05.0,0673.7,31.0
2020-07-27T01:57:00Z,00000380,40000600,,,,,,,,,,24.5,05.0,0673.7,31.0
2020-07-27T01:58:00Z,00000380,60000600,,,,,,,,,,24.6,05.0,0672.7,31.0
2020-07-27T01:59:00Z,00000380,20000600,,,,,,,,,,24.7,04.8,0672.7,31.0
2020-07-27T02:00:00Z,00000380,20000600,,,,,,,,,,24.7,04.8,0672.7,31.0
2020-07-27T02:01:00Z,00000380,20000600,,,,,,,,,,24.7,04.8,0672.7,31.0
2020-07-27T02:02:00Z,00000380,20000600,,,,,,,,,,24.7,04.8,0672.7,31.0
2020-07-27T02:03:00Z,00000380,60000600,,,,,,,,,,24.7,04.8,0672.7,31.0
2020-07-27T02:04:00Z,00000380,40000600,0001.49,0000.36,0000.05,-000.32,0000.18,0000.10,0000.02,-000.11,0000.22,24.5,04.8,0673.6,31.0
2020-07-27T02:05:00Z,00000380,00000600,-000.09,0000.24,0000.30,-000.49,0000.36,0000.02,0000.11,0000.25,0000.03,24.5,04.8,0673.7,31.0
2020-07-27T02:06:00Z,00000380,00000600,0000.13,0000.01,0000.31,-000.96,0000.12,0000.06,0000.07,-000.04,0000.01,24.5,04.9,0673.7,31.0
2020-07-27T02:07:00Z,00000380,00000600,0001.08,0000.55,0000.27,0000.20,-000.03,-000.51,-000.00,-000.13,0000.06,24.4,04.9,0673.7,31.0
2020-07-27T02:08:00Z,00000380,00000600,0001.12,0000.09,0000.18,0000.22,0000.18,-000.15,0000.00,0000.11,0000.02,24.4,04.9,0673.7,31.0
2020-07-27T02:09:00Z,00000380,00000600,0000.56,0000.04,0000.16,-000.23,0000.08,0000.09,0000.09,0000.09,-000.00,24.4,04.9,0673.7,31.0
2020-07-27T02:10:00Z,00000380,00000600,0000.15,0000.40,0000.04,0000.08,0000.40,0000.28,0000.02,0000.04,0000.07,24.4,04.9,0673.7,31.0
2020-07-27T02:11:00Z,00000380,00000600,-000.21,0000.20,0000.56,0000.22,0000.32,0000.27,-000.04,-000.08,0000.03,24.4,04.9,0673.6,31.0
2020-07-27T02:12:00Z,00000380,00000600,0001.04,0000.20,0000.65,-000.24,-000.06,0000.54,0000.11,0000.04,-000.11,24.4,04.9,0673.6,31.0
2020-07-27T02:13:00Z,00000380,00000600,0000.74,0000.29,0000.07,0000.48,0000.12,0000.54,0000.01,0000.09,0000.07,24.4,04.9,0673.6,31.0
2020-07-27T02:14:00Z,00000380,00000600,-000.18,0000.27,0000.46,0000.35,0000.59,0000.64,-000.08,0000.03,-000.04,24.4,05.0,0673.6,31.0
2020-07-27T02:15:00Z,00000380,00000600,-000.13,0000.68,0000.35,-000.36,0000.09,0000.19,0000.08,0000.06,0000.19,24.4,04.9,0673.6,31.0
2020-07-27T02:16:00Z,00000380,00000600,0000.55,-000.64,0000.09,-000.32,0000.08,-000.09,-000.02,-000.02,-000.07,24.4,04.9,0673.6,31.0
2020-07-27T02:17:00Z,00000380,00000600,0001.39,0000.37,0000.55,0000.10,0000.10,0000.10,-000.00,-000.02,0000.05,24.4,05.0,0673.6,31.0
2020-07-27T02:18:00Z,00000380,00000600,0001.26,0000.42,0000.25,0000.26,0000.28,0000.08,0000.12,0000.02,-000.01,24.4,04.9,0673.6,31.0
2020-07-27T02:19:00Z,00000380,00000600,0000.31,0000.34,0000.29,0000.89,-000.01,0000.34,0000.12,0000.12,0000.10,24.3,05.0,0673.6,31.0
2020-07-27T02:20:00Z,00000380,00000600,0001.25,0000.40,-000.18,0000.16,0000.53,-000.33,-000.06,-000.11,-000.04,24.3,05.0,0673.6,31.0
2020-07-27T02:21:00Z,00000380,00000600,-000.27,0000.10,0000.02,0000.29,0000.24,0000.06,-000.19,0000.22,0000.03,24.3,05.0,0673.6,31.0
2020-07-27T02:22:00Z,00000380,00000600,0000.75,0000.31,-000.09,0000.10,0000.27,-000.20,0000.20,-000.09,0000.07,24.3,05.0,0673.6,31.0
2020-07-27T02:23:00Z,00000380,00000600,0000.72,0000.32,0000.60,-000.34,-000.02,-000.44,-000.03,0000.07,0000.00,24.3,05.0,0673.6,31.0
2020-07-27T02:24:00Z,00000380,00000600,0001.36,0000.26,0000.13,0000.13,0000.07,-000.23,0000.05,-000.05,-000.07,24.3,05.0,0673.6,31.0
2020-07-27T02:25:00Z,00000380,00000600,0000.30,0000.37,0000.94,0000.36,0000.02,-000.18,-000.05,0000.13,0000.06,24.3,05.0,0673.6,31.0
2020-07-27T02:26:00Z,00000380,00000600,0000.85,0000.83,0000.72,0000.51,0000.35,0000.08,0000.06,-000.05,-000.08,24.3,05.0,0673.6,31.0
2020-07-27T02:27:00Z,00000380,00000600,-000.11,0000.78,0000.48,-000.03,0000.31,-000.06,0000.13,0000.04,0000.07,24.3,05.0,0673.6,31.0
2020-07-27T02:28:00Z,00000380,00000600,0000.55,0000.15,0000.06,-000.95,0000.45,0000.28,-000.03,0000.03,0000.11,24.3,04.9,0673.6,31.0
2020-07-27T02:29:00Z,00000380,00000600,0001.30,0000.03,0000.17,0000.08,0000.50,0000.28,-000.01,0000.00,-000.05,24.3,05.0,0673.5,31.0
2020-07-27T02:30:00Z,00000380,00000600,-000.29,0000.30,0000.19,0000.08,0000.27,-000.17,0000.11,0000.06,0000.08,24.3,05.0,0673.5,31.0
2020-07-27T02:31:00Z,00000380,00000600,0000.56,0000.32,0000.22,0000.34,0000.15,-000.11,0000.04,-000.03,-000.05,24.3,05.0,0673.5,31.0
2020-07-27T02:32:00Z,00000380,00000600,0000.19,-000.10,0000.33,-000.19,0000.33,0000.15,-000.04,0000.01,0000.12,24.3,05.0,0673.5,31.0
2020-07-27T02:33:00Z,00000380,00000600,0000.17,-000.29,0000.22,-000.33,0000.48,-000.30,0000.05,0000.06,-000.05,24.3,05.0,0673.4,31.0
2020-07-27T02:34:00Z,00000380,00000600,0000.39,0000.12,0000.46,0000.02,0000.00,0000.28,0000.05,0000.08,-000.03,24.3,05.0,0673.4,31.0
2020-07-27T02:35:00Z,00000380,00000600,0000.93,0000.33,0000.41,0000.39,0000.34,0000.32,-000.02,-000.05,0000.08,24.3,05.0,0673.4,31.0
2020-07-27T02:36:00Z,00000380,00000600,0000.33,-000.57,0000.69,0000.16,-000.14,0000.13,-000.06,0000.01,0000.05,24.2,04.9,0673.4,31.0
2020-07-27T02:37:00Z,00000380,00000600,0000.79,0000.07,0000.81,-000.41,0000.51,0000.02,0000.18,0000.05,0000.04,24.2,05.0,0673.4,31.0
2020-07-27T02:38:00Z,00000380,00000600,0000.55,0000.42,0000.64,0000.23,0000.63,0000.33,-000.03,0000.08,0000.02,24.2,04.9,0673.4,31.0
2020-07-27T02:39:00Z,00000380,00000600,0000.46,0000.35,0001.13,-000.30,0000.35,0000.25,0000.09,-000.06,-000.05,24.2,04.9,0673.4,31.0
2020-07-27T02:40:00Z,00000380,00000600,0001.23,0000.74,0000.22,0000.13,-000.04,-000.33,0000.02,0000.09,0000.06,24.2,04.9,0673.4,31.0
2020-07-27T02:41:00Z,00000380,00000600,0000.45,0000.12,0000.48,0000.48,0000.49,-000.11,-000.08,0000.11,-000.02,24.2,04.9,0673.4,31.0
2020-07-27T02:42:00Z,00000380,00000600,0001.31,0000.21,0000.42,0000.68,0000.53,-000.21,-000.02,-000.15,-000.01,24.2,05.0,0673.4,31.0
2020-07-27T02:43:00Z,00000380,00000600,0000.52,-000.27,0000.77,-000.09,0000.34,-000.04,0000.10,0000.15,0000.03,24.2,04.9,0673.4,31.0
2020-07-27T02:44:00Z,00000380,00000600,0000.93,0000.10,0000.53,-000.08,0000.40,0000.25,-000.09,0000.20,-000.06,24.2,04.9,0673.4,31.0
2020-07-27T02:45:00Z,00000380,00000600,0000.60,0000.40,0000.38,-000.34,0000.27,0000.12,-000.01,-000.29,0000.02,24.2,04.9,0673.3,31.0
2020-07-27T02:46:00Z,00000380,00000600,0000.30,0000.79,0000.24,0000.33,0000.16,0000.43,-000.01,-000.12,0000.02,24.2,04.9,0673.4,31.0
2020-07-27T02:47:00Z,00000380,00000600,0000.93,0000.03,0000.51,0000.41,0000.72,-000.03,0000.06,0000.04,0000.02,24.2,04.9,0673.4,31.0
2020-07-27T02:48:00Z,00000380,00000600,-000.08,0000.64,0000.16,-000.23,-000.38,0000.15,0000.06,0000.26,0000.03,24.2,04.9,0673.4,31.0
2020-07-27T02:49:00Z,00000380,00000600,0000.69,0000.70,0001.01,-000.65,0000.23,0000.07,0000.05,0000.06,0000.14,24.2,04.9,0673.4,31.0
2020-07-27T02:50:00Z,00000380,00000600,0001.45,0000.41,-000.36,0000.88,0000.30,-000.12,-000.06,0000.01,0000.03,24.2,04.9,0673.3,31.0
2020-07-27T02:51:00Z,00000380,00000600,0001.62,0000.49,0000.17,-000.15,-000.11,-000.04,0000.10,0000.06,-000.07,24.2,04.8,0673.3,31.0
2020-07-27T02:52:00Z,00000380,00000600,0000.02,0000.14,0000.95,0000.14,-000.04,-000.15,-000.04,-000.10,0000.04,24.2,04.8,0673.3,31.0
2020-07-27T02:53:00Z,00000380,00000600,0001.10,0000.30,0000.16,-000.10,0000.51,-000.11,0000.04,0000.20,0000.00,24.2,04.9,0673.3,31.0
2020-07-27T02:54:00Z,00000380,00000600,0001.53,0000.31,0000.85,0000.48,0000.49,-000.01,0000.06,-000.06,-000.04,24.2,04.9,0673.3,31.0
2020-07-27T02:55:00Z,00000380,00000600,0000.81,0000.35,0000.01,0000.03,-000.03,0000.37,-000.01,0000.05,0000.12,24.2,04.9,0673.4,31.0
2020-07-27T02:56:00Z,00000380,00000600,0000.26,0000.33,-000.06,0000.89,0000.31,-000.03,0000.01,-000.07,-000.10,24.1,04.9,0673.4,31.0
2020-07-27T02:57:00Z,00000380,40000600,,,,,,,,,,24.2,04.8,0673.4,31.0
2020-07-27T02:58:00Z,00000380,60000600,,,,,,,,,,24.3,04.8,0672.4,31.0
2020-07-27T02:59:00Z,00000380,20000600,,,,,,,,,,24.4,04.8,0672.4,31.0
2020-07-27T03:00:00Z,00000380,20000600,,,,,,,,,,24.4,04.8,0672.4,31.0
2020-07-27T03:01:00Z,00000380,20000600,,,,,,,,,,24.4,04.8,0672.4,31.0
2020-07-27T03:02:00Z,00000380,20000600,,,,,,,,,,24.4,04.8,0672.4,31.0
2020-07-27T03:03:00Z,00000380,60000600,,,,,,,,,,24.4,04.8,0672.4,31.0
2020-07-27T03:04:00Z,00000380,40000600,-000.04,0000.91,-000.25,0001.23,0000.12,-000.13,0000.06,0000.14,0000.04,24.2,04.7,0673.3,31.0
2020-07-27T03:05:00Z,00000380,00000600,0001.79,0000.18,0000.23,0000.34,-000.04,0000.37,-000.06,-000.05,0000.10,24.2,04.8,0673.4,31.0
2020-07-27T03:06:00Z,00000380,00000600,0000.72,0000.21,0000.22,0000.29,0000.10,-000.27,0000.17,0000.02,0000.01,24.2,04.8,0673.4,31.0
2020-07-27T03:07:00Z,00000380,00000600,0002.08,0000.26,0000.09,0000.21,0000.09,0000.07,-000.10,0000.11,0000.11,24.1,04.8,0673.4,31.0
2020-07-27T03:08:00Z,00000380,00000600,0000.58,0000.02,0000.07,0001.06,-000.22,-000.02,0000.06,-000.11,-000.09,24.2,04.9,0673.4,31.0
2020-07-27T03:09:00Z,00000380,00000600,0000.78,0000.08,0000.23,0000.34,0000.13,-000.16,0000.08,0000.28,-000.05,24.1,04.8,0673.4,31.0
2020-07-27T03:10:00Z,00000380,00000600,0001.09,0000.34,0000.31,0000.99,-000.18,0000.45,-000.09,-000.00,0000.09,24.1,04.8,0673.4,31.0